CW9825 Weather Reports


Display with metric or nautical units.
time (UTC)temp
F
wind
direction
speed
MPH
gust
MPH
rain 1hr
in
rain 24hr
in
rain mn
in
humidity
%
barometer
mb
20210730093603 64 186 2.0 6.0 0.00 0.00 0.00 76 1021.3
20210730093153 64 161 3.0 5.0 0.00 0.00 0.00 76 1021.2
20210730092630 64 177 2.0 5.0 0.00 0.00 0.00 76 1021.2
20210730092057 64 153 3.0 6.0 0.00 0.00 0.00 76 1021.1
20210730091715 64 150 2.0 6.0 0.00 0.00 0.00 76 1021.1
20210730091120 63 150 2.0 6.0 0.00 0.00 0.00 77 1021.1
20210730090552 63 159 3.0 5.0 0.00 0.00 0.00 78 1021.1
20210730085553 61 124 2.0 4.0 0.00 0.00 0.00 82 1021.2
20210730085100 61 14 1.0 2.0 0.00 0.00 0.00 82 1021.1
20210730084715 61 14 0.0 0.0 0.00 0.00 0.00 83 1021.1
20210730084050 61 14 0.0 0.0 0.00 0.00 0.00 83 1021.1
20210730083604 61 14 0.0 0.0 0.00 0.00 0.00 83 1021.1
20210730083215 61 14 0.0 0.0 0.00 0.00 0.00 83 1021.2
20210730082548 62 14 0.0 0.0 0.00 0.00 0.00 81 1021.0
20210730082132 62 14 0.0 0.0 0.00 0.00 0.00 82 1021.1
20210730081716 62 14 0.0 0.0 0.00 0.00 0.00 82 1021.0
20210730081049 62 14 0.0 0.0 0.00 0.00 0.00 81 1020.9
20210730080546 63 14 0.0 0.0 0.00 0.00 0.00 81 1020.8
20210730080142 63 14 0.0 0.0 0.00 0.00 0.00 80 1020.8
20210730075545 63 14 0.0 0.0 0.00 0.00 0.00 79 1020.8
20210730075045 63 14 0.0 0.0 0.00 0.00 0.00 81 1020.8
20210730074610 62 14 0.0 0.0 0.00 0.00 0.00 82 1020.9
20210730074051 62 14 0.0 0.0 0.00 0.00 0.00 83 1020.9
20210730073605 62 14 0.0 0.0 0.00 0.00 0.00 82 1020.8
20210730073152 62 14 0.0 0.0 0.00 0.00 0.00 82 1020.8
20210730072604 63 14 0.0 0.0 0.00 0.00 0.00 81 1020.7
20210730072043 63 14 0.0 1.0 0.00 0.00 0.00 81 1020.9
20210730071621 63 14 0.0 1.0 0.00 0.00 0.00 81 1020.8
20210730071058 62 14 0.0 1.0 0.00 0.00 0.00 82 1021.0
20210730070553 62 14 0.0 1.0 0.00 0.00 0.00 81 1020.9
20210730070219 63 14 0.0 1.0 0.00 0.00 0.00 80 1020.9
20210730065548 63 14 0.0 0.0 0.00 0.00 0.00 81 1021.0
20210730065039 63 14 0.0 0.0 0.00 0.00 0.00 80 1021.1
20210730064637 63 14 0.0 0.0 0.00 0.00 0.00 80 1021.1
20210730064039 64 14 0.0 0.0 0.00 0.00 0.00 79 1021.0
20210730063652 64 14 0.0 0.0 0.00 0.00 0.00 79 1021.0
20210730063355 64 14 0.0 0.0 0.00 0.00 0.00 80 1021.1
20210730062551 63 14 0.0 0.0 0.00 0.00 0.00 80 1021.1
20210730062037 63 14 0.0 0.0 0.00 0.00 0.00 80 1020.9
20210730061640 64 14 0.0 0.0 0.00 0.00 0.00 79 1020.9
20210730061036 64 14 0.0 1.0 0.00 0.00 0.00 80 1020.9
20210730060536 64 14 0.0 1.0 0.00 0.00 0.00 79 1020.9
20210730060141 64 14 0.0 0.0 0.00 0.00 0.00 79 1020.9
20210730055034 64 14 0.0 1.0 0.00 0.00 0.00 79 1020.8
20210730054610 64 14 0.0 1.0 0.00 0.00 0.00 78 1020.9
20210730054039 64 14 0.0 1.0 0.00 0.00 0.00 79 1020.9
20210730053532 64 14 0.0 0.0 0.00 0.00 0.00 78 1020.9
20210730053112 65 14 0.0 0.0 0.00 0.00 0.00 77 1020.9
20210730052537 65 14 0.0 2.0 0.00 0.00 0.00 76 1020.9
20210730052030 65 14 0.0 2.0 0.00 0.00 0.00 75 1020.9
20210730051628 66 14 0.0 2.0 0.00 0.00 0.00 75 1021.0
20210730051029 65 14 0.0 2.0 0.00 0.00 0.00 75 1021.1
20210730050526 66 14 0.0 3.0 0.00 0.00 0.00 75 1021.2
20210730050115 65 14 0.0 3.0 0.00 0.00 0.00 75 1021.2
20210730045527 65 14 0.0 0.0 0.00 0.00 0.00 77 1021.2
20210730045034 65 14 0.0 0.0 0.00 0.00 0.00 76 1021.1
20210730044552 65 14 0.0 0.0 0.00 0.00 0.00 76 1021.1
20210730044025 65 14 0.0 0.0 0.00 0.00 0.00 75 1021.2
20210730043526 66 14 0.0 0.0 0.00 0.00 0.00 75 1021.2
20210730043107 66 14 0.0 0.0 0.00 0.00 0.00 73 1021.1
20210730042524 67 14 0.0 0.0 0.00 0.00 0.00 71 1021.2
20210730042023 68 14 0.0 0.0 0.00 0.00 0.00 70 1021.2
20210730041720 68 14 0.0 0.0 0.00 0.00 0.00 68 1021.2
20210730041034 69 14 0.0 0.0 0.00 0.00 0.00 66 1021.2
20210730040524 69 14 0.0 0.0 0.00 0.00 0.00 64 1021.3
20210730040031 69 14 0.0 0.0 0.00 0.00 0.00 64 1021.2
20210730035524 69 14 0.0 0.0 0.00 0.00 0.00 63 1021.3
20210730035024 69 14 0.0 0.0 0.00 0.00 0.00 62 1021.2
20210730034555 70 14 0.0 0.0 0.00 0.00 0.00 62 1021.3
20210730034023 70 14 0.0 0.0 0.00 0.00 0.00 61 1021.2
20210730033557 71 13 0.0 0.0 0.00 0.00 0.00 59 1021.3
20210730032522 71 13 0.0 0.0 0.00 0.00 0.00 58 1021.3
20210730032022 72 13 0.0 0.0 0.00 0.00 0.00 58 1021.1
20210730031602 72 13 0.0 0.0 0.00 0.00 0.00 57 1021.2
20210730031022 72 13 0.0 0.0 0.00 0.00 0.00 57 1021.2
20210730030523 73 13 0.0 0.0 0.00 0.00 0.00 57 1021.2
20210730030049 72 13 0.0 0.0 0.00 0.00 0.00 56 1021.2
20210730025531 72 13 0.0 1.0 0.00 0.00 0.00 56 1021.1
20210730025025 73 13 0.0 2.0 0.00 0.00 0.00 55 1021.0
20210730024542 73 13 0.0 2.0 0.00 0.00 0.00 55 1021.0
20210730024021 73 13 0.0 2.0 0.00 0.00 0.00 55 1021.1
20210730023520 73 13 1.0 2.0 0.00 0.00 0.00 55 1021.0
20210730023025 73 13 1.0 2.0 0.00 0.00 0.00 55 1021.0
20210730022533 73 13 0.0 2.0 0.00 0.00 0.00 55 1020.8
20210730022019 74 13 0.0 2.0 0.00 0.00 0.00 53 1020.8
20210730021530 74 13 0.0 2.0 0.00 0.00 0.00 53 1020.8
20210730021042 74 13 0.0 1.0 0.00 0.00 0.00 54 1020.9
20210730020520 74 13 0.0 1.0 0.00 0.00 0.00 54 1020.8
20210730020019 74 13 0.0 0.0 0.00 0.00 0.00 53 1020.8
20210730015518 74 13 0.0 1.0 0.00 0.00 0.00 52 1020.9
20210730015019 75 13 0.0 1.0 0.00 0.00 0.00 51 1020.9
20210730014525 75 13 0.0 1.0 0.00 0.00 0.00 50 1021.0
20210730014018 75 13 0.0 1.0 0.00 0.00 0.00 52 1020.8
20210730013522 76 13 0.0 0.0 0.00 0.00 0.00 49 1020.8
20210730013021 75 13 0.0 1.0 0.00 0.00 0.00 50 1020.7
20210730012519 76 13 0.0 2.0 0.00 0.00 0.00 49 1020.8
20210730012019 76 13 0.0 2.0 0.00 0.00 0.00 50 1020.8
20210730011613 77 13 0.0 2.0 0.00 0.00 0.00 47 1020.7
20210730011033 77 13 0.0 4.0 0.00 0.00 0.00 48 1020.7
20210730010517 77 13 0.0 4.0 0.00 0.00 0.00 48 1020.6
20210730010110 77 13 0.0 2.0 0.00 0.00 0.00 47 1020.7
20210730005517 77 13 0.0 3.0 0.00 0.00 0.00 47 1020.6
20210730005022 77 13 1.0 3.0 0.00 0.00 0.00 46 1020.7
20210730004535 77 13 1.0 5.0 0.00 0.00 0.00 46 1020.8
20210730003516 78 11 1.0 5.0 0.00 0.00 0.00 44 1020.7
20210730003033 78 11 2.0 5.0 0.00 0.00 0.00 42 1020.7
20210730002515 79 30 2.0 5.0 0.00 0.00 0.00 42 1020.7
20210730002016 79 39 2.0 5.0 0.00 0.00 0.00 41 1020.8
20210730001538 79 56 2.0 7.0 0.00 0.00 0.00 41 1020.7
20210730001020 79 22 2.0 6.0 0.00 0.00 0.00 40 1020.8
20210730000514 79 26 1.0 6.0 0.00 0.00 0.00 40 1020.9
20210730000042 79 34 2.0 6.0 0.00 0.00 0.00 39 1020.9
20210729235519 80 40 2.0 5.0 0.00 0.00 0.00 40 1020.8
20210729235014 80 50 2.0 6.0 0.00 0.00 0.00 39 1020.9
20210729234521 80 41 2.0 8.0 0.00 0.00 0.00 39 1020.9
20210729234020 81 41 2.0 8.0 0.00 0.00 0.00 38 1021.0
20210729233515 81 42 2.0 6.0 0.00 0.00 0.00 37 1020.9
20210729233051 81 26 2.0 8.0 0.00 0.00 0.00 37 1021.1
20210729232513 81 49 3.0 8.0 0.00 0.00 0.00 35 1021.1
20210729232015 81 47 3.0 10.0 0.00 0.00 0.00 35 1021.1
20210729231517 81 18 5.0 10.0 0.00 0.00 0.00 34 1021.1
20210729231011 82 360 4.0 10.0 0.00 0.00 0.00 34 1021.1
20210729230536 82 5 3.0 10.0 0.00 0.00 0.00 35 1021.1
20210729230028 82 5 4.0 11.0 0.00 0.00 0.00 35 1021.1
20210729225515 81 355 3.0 10.0 0.00 0.00 0.00 36 1021.1
20210729225017 81 25 4.0 10.0 0.00 0.00 0.00 35 1021.1
20210729224542 81 350 4.0 10.0 0.00 0.00 0.00 35 1021.1
20210729224015 82 56 4.0 9.0 0.00 0.00 0.00 34 1021.1
20210729223045 82 30 4.0 10.0 0.00 0.00 0.00 35 1021.1
20210729222508 82 11 5.0 10.0 0.00 0.00 0.00 35 1021.1
20210729222020 82 20 4.0 8.0 0.00 0.00 0.00 36 1021.1
20210729221520 81 5 3.0 11.0 0.00 0.00 0.00 35 1021.1
20210729221007 81 319 5.0 12.0 0.00 0.00 0.00 36 1021.1
20210729220506 81 349 5.0 12.0 0.00 0.00 0.00 37 1021.2
20210729220010 81 360 6.0 12.0 0.00 0.00 0.00 37 1021.1
20210729215509 81 13 5.0 11.0 0.00 0.00 0.00 37 1021.2
20210729215010 82 18 4.0 9.0 0.00 0.00 0.00 39 1021.2
20210729214505 81 18 3.0 11.0 0.00 0.00 0.00 40 1021.2
20210729214005 81 15 3.0 13.0 0.00 0.00 0.00 39 1021.3
20210729213509 81 272 5.0 13.0 0.00 0.00 0.00 38 1021.4
20210729213005 81 18 5.0 16.0 0.00 0.00 0.00 38 1021.5
20210729212503 81 5 6.0 16.0 0.00 0.00 0.00 37 1021.4
20210729212003 81 360 5.0 13.0 0.00 0.00 0.00 37 1021.3
20210729211502 81 298 5.0 13.0 0.00 0.00 0.00 38 1021.3
20210729211006 81 347 4.0 13.0 0.00 0.00 0.00 39 1021.5
20210729210505 81 340 5.0 13.0 0.00 0.00 0.00 40 1021.4
20210729210003 81 340 4.0 13.0 0.00 0.00 0.00 39 1021.5
20210729205612 81 5 5.0 13.0 0.00 0.00 0.00 41 1021.4
20210729205107 81 306 4.0 12.0 0.00 0.00 0.00 41 1021.4
20210729204624 81 288 4.0 12.0 0.00 0.00 0.00 41 1021.5
20210729204059 81 321 6.0 12.0 0.00 0.00 0.00 43 1021.6
20210729203608 81 11 3.0 10.0 0.00 0.00 0.00 42 1021.5
20210729203136 81 308 4.0 11.0 0.00 0.00 0.00 41 1021.4
20210729202611 81 15 4.0 12.0 0.00 0.00 0.00 41 1021.4
20210729202057 80 338 5.0 12.0 0.00 0.00 0.00 42 1021.4
20210729201855 80 295 6.0 12.0 0.00 0.00 0.00 43 1021.4
20210729201057 80 5 5.0 14.0 0.00 0.00 0.00 45 1021.4
20210729200604 79 46 7.0 14.0 0.00 0.00 0.00 46 1021.3
20210729200201 80 296 7.0 14.0 0.00 0.00 0.00 46 1021.3
20210729195554 79 5 7.0 14.0 0.00 0.00 0.00 46 1021.2
20210729195053 80 296 7.0 14.0 0.00 0.00 0.00 48 1021.2
20210729194619 79 28 9.0 15.0 0.00 0.00 0.00 48 1021.3
20210729194101 79 15 8.0 15.0 0.00 0.00 0.00 48 1021.4
20210729193600 79 323 7.0 16.0 0.00 0.00 0.00 49 1021.4
20210729193135 78 37 9.0 16.0 0.00 0.00 0.00 49 1021.4
20210729192550 79 33 5.0 16.0 0.00 0.00 0.00 50 1021.5
20210729192049 79 9 9.0 16.0 0.00 0.00 0.00 49 1021.5
20210729191643 79 9 7.0 13.0 0.00 0.00 0.00 51 1021.5
20210729191114 78 9 4.0 10.0 0.00 0.00 0.00 54 1021.7
20210729190547 79 10 4.0 10.0 0.00 0.00 0.00 54 1021.7
20210729190122 78 333 5.0 12.0 0.00 0.00 0.00 55 1021.7
20210729185552 78 40 7.0 12.0 0.00 0.00 0.00 54 1021.8
20210729185113 78 5 5.0 12.0 0.00 0.00 0.00 55 1021.8
20210729184610 77 340 3.0 10.0 0.00 0.00 0.00 55 1021.8
20210729184044 77 348 4.0 11.0 0.00 0.00 0.00 55 1021.9
20210729183544 77 285 5.0 12.0 0.00 0.00 0.00 55 1022.0
20210729183118 77 360 6.0 12.0 0.00 0.00 0.00 56 1022.0
20210729182548 76 348 5.0 12.0 0.00 0.00 0.00 55 1022.0
20210729182042 76 321 5.0 12.0 0.00 0.00 0.00 56 1022.1
20210729181547 76 5 4.0 11.0 0.00 0.00 0.00 57 1022.1
20210729181042 76 273 5.0 11.0 0.00 0.00 0.00 56 1022.1
20210729180550 76 325 4.0 11.0 0.00 0.00 0.00 57 1022.0
20210729180128 76 51 7.0 11.0 0.00 0.00 0.00 57 1022.1
20210729175541 76 301 3.0 11.0 0.00 0.00 0.00 58 1022.1
20210729175041 76 333 4.0 15.0 0.00 0.00 0.00 60 1022.2
20210729174629 75 26 4.0 15.0 0.00 0.00 0.00 59 1022.2
20210729174049 74 298 3.0 10.0 0.00 0.00 0.00 61 1022.3
20210729173544 74 14 4.0 9.0 0.00 0.00 0.00 60 1022.3
20210729173110 74 355 3.0 9.0 0.00 0.00 0.00 61 1022.4
20210729172534 74 291 4.0 9.0 0.00 0.00 0.00 61 1022.4
20210729172040 74 360 3.0 8.0 0.00 0.00 0.00 62 1022.5
20210729171620 74 332 3.0 10.0 0.00 0.00 0.00 61 1022.4
20210729171032 73 38 3.0 10.0 0.00 0.00 0.00 63 1022.4
20210729170534 72 39 3.0 13.0 0.00 0.00 0.00 64 1022.4
20210729170050 72 327 4.0 13.0 0.00 0.00 0.00 65 1022.4
20210729165529 72 5 5.0 11.0 0.00 0.00 0.00 65 1022.4
20210729165037 71 303 4.0 9.0 0.00 0.00 0.00 65 1022.5
20210729164604 71 319 4.0 9.0 0.00 0.00 0.00 66 1022.6
20210729164028 70 330 5.0 11.0 0.00 0.00 0.00 67 1022.6
20210729163526 70 355 5.0 11.0 0.00 0.00 0.00 68 1022.6
20210729163032 70 321 3.0 8.0 0.00 0.00 0.00 68 1022.7
20210729162525 69 281 3.0 11.0 0.00 0.00 0.00 69 1022.6
20210729162023 69 348 3.0 11.0 0.00 0.00 0.00 69 1022.5
20210729161621 69 24 4.0 9.0 0.00 0.00 0.00 69 1022.4
20210729161022 69 15 3.0 10.0 0.00 0.00 0.00 69 1022.4
20210729160521 69 338 2.0 10.0 0.00 0.00 0.00 70 1022.5
20210729160027 68 308 3.0 8.0 0.00 0.00 0.00 70 1022.6
20210729155519 69 56 2.0 9.0 0.00 0.00 0.00 70 1022.5
20210729155031 68 5 4.0 9.0 0.00 0.00 0.00 69 1022.5
20210729154552 68 331 5.0 9.0 0.00 0.00 0.00 70 1022.4
20210729154025 68 347 2.0 10.0 0.00 0.00 0.00 69 1022.3
20210729153518 67 360 5.0 12.0 0.00 0.00 0.00 70 1022.4
20210729153024 67 17 6.0 13.0 0.00 0.00 0.00 69 1022.2
20210729152516 67 355 4.0 13.0 0.00 0.00 0.00 70 1022.0
20210729152023 67 311 3.0 11.0 0.00 0.00 0.00 70 1022.1
20210729151526 66 14 6.0 12.0 0.00 0.00 0.00 72 1022.0
20210729151031 66 65 7.0 12.0 0.00 0.00 0.00 72 1022.0
20210729150518 66 360 6.0 14.0 0.00 0.00 0.00 72 1022.0
20210729150017 66 9 7.0 14.0 0.00 0.00 0.00 73 1021.9
20210729145514 65 49 3.0 11.0 0.00 0.00 0.00 74 1021.9
20210729145010 65 329 3.0 11.0 0.00 0.00 0.00 75 1022.0
20210729144519 65 15 5.0 11.0 0.00 0.00 0.00 74 1021.9
20210729144008 65 13 5.0 10.0 0.00 0.00 0.00 76 1021.8
20210729143509 65 24 4.0 10.0 0.00 0.00 0.00 76 1021.9
20210729143014 64 26 3.0 10.0 0.00 0.00 0.00 77 1022.0
20210729142507 64 303 4.0 11.0 0.00 0.00 0.00 77 1021.9
20210729142015 64 355 5.0 11.0 0.00 0.00 0.00 78 1021.9
20210729141507 64 330 2.0 11.0 0.00 0.00 0.00 78 1021.9
20210729141009 63 330 4.0 10.0 0.00 0.00 0.00 78 1021.8
20210729140504 63 355 3.0 12.0 0.00 0.00 0.00 79 1021.9
20210729140012 63 20 3.0 12.0 0.00 0.00 0.00 79 1021.9
20210729135501 63 336 2.0 11.0 0.00 0.00 0.00 80 1021.8
20210729135109 62 5 4.0 11.0 0.00 0.00 0.00 80 1021.7
20210729134657 62 5 4.0 10.0 0.00 0.00 0.00 80 1021.7
20210729134059 62 322 5.0 10.0 0.00 0.00 0.00 80 1021.7
20210729133558 61 296 3.0 9.0 0.00 0.00 0.00 80 1021.6
20210729133137 61 5 3.0 12.0 0.00 0.00 0.00 81 1021.6
20210729132556 61 341 6.0 12.0 0.00 0.00 0.00 80 1021.6
20210729132127 61 327 4.0 11.0 0.00 0.00 0.00 80 1021.5
20210729131612 61 360 5.0 11.0 0.00 0.00 0.00 80 1021.6
20210729131056 61 350 3.0 9.0 0.00 0.00 0.00 80 1021.5
20210729130607 61 5 2.0 9.0 0.00 0.00 0.00 80 1021.5
20210729130225 60 331 2.0 9.0 0.00 0.00 0.00 80 1021.5
20210729125552 60 330 2.0 9.0 0.00 0.00 0.00 80 1021.5
20210729125050 60 322 2.0 9.0 0.00 0.00 0.00 80 1021.5
20210729124647 60 333 3.0 9.0 0.00 0.00 0.00 80 1021.4
20210729124053 60 12 2.0 9.0 0.00 0.00 0.00 80 1021.4
20210729123545 60 320 2.0 5.0 0.00 0.00 0.00 80 1021.3
20210729123128 60 322 1.0 5.0 0.00 0.00 0.00 80 1021.2
20210729122546 59 329 2.0 5.0 0.00 0.00 0.00 80 1021.1
20210729122042 59 323 2.0 5.0 0.00 0.00 0.00 79 1021.0
20210729121634 59 333 1.0 5.0 0.00 0.00 0.00 80 1021.1
20210729121059 59 355 1.0 6.0 0.00 0.00 0.00 79 1021.0
20210729120542 59 336 2.0 6.0 0.00 0.00 0.00 79 1020.9
20210729120111 59 306 2.0 6.0 0.00 0.00 0.00 79 1020.9
20210729115537 59 320 2.0 6.0 0.00 0.01 0.00 79 1020.8
20210729115036 59 327 2.0 6.0 0.00 0.01 0.00 79 1020.7
20210729114550 59 341 3.0 6.0 0.00 0.01 0.00 79 1020.7
20210729114052 59 321 2.0 5.0 0.00 0.01 0.00 79 1020.7
20210729113540 59 317 1.0 4.0 0.00 0.01 0.00 79 1020.7
20210729113053 59 317 1.0 6.0 0.00 0.01 0.00 78 1020.6
20210729112530 59 315 2.0 6.0 0.00 0.01 0.00 78 1020.5
20210729112037 59 305 2.0 5.0 0.00 0.01 0.00 78 1020.5
20210729111551 59 304 2.0 7.0 0.00 0.01 0.00 77 1020.5
20210729111054 60 304 2.0 7.0 0.00 0.01 0.00 76 1020.5
20210729110533 60 281 3.0 8.0 0.00 0.01 0.00 76 1020.4
20210729110046 60 298 3.0 8.0 0.00 0.01 0.00 76 1020.4
20210729105529 60 331 2.0 6.0 0.00 0.01 0.00 75 1020.3
20210729105024 60 321 2.0 6.0 0.00 0.01 0.00 75 1020.3
20210729104552 60 312 2.0 8.0 0.00 0.01 0.00 75 1020.2
20210729104023 61 302 3.0 10.0 0.00 0.01 0.00 74 1020.1
20210729103530 61 350 3.0 10.0 0.00 0.01 0.00 74 1020.1
20210729103044 61 5 2.0 6.0 0.00 0.01 0.00 73 1020.0
20210729102522 61 330 2.0 6.0 0.00 0.01 0.00 73 1020.0
20210729102037 61 327 2.0 6.0 0.00 0.01 0.00 73 1020.0
20210729101555 61 10 2.0 5.0 0.00 0.01 0.00 73 1019.9
20210729101025 61 324 2.0 8.0 0.00 0.01 0.00 72 1019.8
20210729100535 61 313 2.0 8.0 0.00 0.01 0.00 72 1019.7
20210729100054 61 311 3.0 8.0 0.00 0.01 0.00 71 1019.6
20210729095523 61 336 3.0 5.0 0.00 0.01 0.00 71 1019.6
20210729095021 61 307 2.0 5.0 0.00 0.01 0.00 70 1019.6
20210729094516 62 321 2.0 5.0 0.00 0.01 0.00 69 1019.6
20210729094014 62 315 2.0 5.0 0.00 0.01 0.00 69 1019.5